Wind_Speed
8 8 8 8 8 8 9 9 10 10 10 10 11 12 13 13 14 14 14 15 15 16 16 16 16 17 16 16 16 15 16 16 17 17 17 17 17 17 17 17 17 17 16
8 7 7 8 8 9 9 9 9 10 10 10 11 12 12 13 14 14 15 14 14 15 15 15 16 16 15 14 15 16 16 17 17 17 17 17 17 18 18 18 18 18 17
8 8 7 7 8 8 8 9 9 10 10 10 11 11 12 12 13 14 15 16 16 16 15 16 16 17 16 15 15 16 16 17 17 18 18 18 19 18 18 18 19 19 18
8 8 8 8 8 8 8 8 9 9 9 10 10 11 11 12 12 13 14 15 16 16 16 16 16 17 17 17 17 17 17 17 17 18 18 18 18 18 18 18 18 18 17
8 8 8 8 8 8 9 9 9 9 10 10 11 11 12 12 13 13 13 14 15 15 15 15 16 17 17 17 18 18 18 17 16 17 18 18 17 17 18 18 17 18 17
8 8 8 8 8 9 9 9 10 10 10 11 11 12 12 13 13 13 14 14 14 15 15 15 15 16 17 17 16 16 17 16 16 16 17 18 18 17 17 16 17 17 18
8 8 8 9 9 9 10 10 11 11 11 11 12 12 13 13 13 13 14 14 14 15 15 15 15 15 16 16 16 16 16 17 17 16 16 16 16 16 16 16 16 16 17
9 9 9 10 10 10 11 11 12 12 12 12 12 13 13 13 14 14 14 14 14 14 15 15 15 15 15 15 15 15 15 16 17 17 16 16 16 16 17 16 16 16 16
10 10 10 11 11 11 12 12 12 12 12 12 13 13 13 14 14 14 14 14 15 15 15 16 16 16 16 16 16 16 16 17 16 15 16 16 16 16 16 17 16 16 17
11 12 12 11 11 12 12 12 12 12 12 12 13 13 13 13 14 14 14 14 15 15 15 15 16 16 17 17 16 16 16 17 16 16 16 15 15 16 16 16 16 16 16
12 12 12 12 12 12 12 12 13 13 13 13 14 13 13 13 13 14 14 14 15 15 15 16 16 16 17 17 17 17 17 16 16 16 16 16 16 16 16 16 16 16 16
12 13 13 13 13 13 12 13 13 14 14 15 15 15 14 14 14 14 14 15 15 16 16 16 16 17 17 17 17 17 17 16 16 16 16 16 16 16 16 16 16 16 16
14 13 13 13 14 14 14 13 14 15 15 15 15 15 15 15 15 15 15 15 16 16 17 17 17 17 17 17 17 17 17 17 16 16 17 16 16 16 16 16 16 16 16
14 14 14 14 14 14 15 15 15 16 16 16 16 16 16 15 16 16 16 16 16 17 17 17 17 17 17 17 18 18 17 17 17 16 16 16 16 16 16 16 17 17 17
15 15 14 14 14 15 15 16 17 16 16 16 16 16 16 16 16 16 16 16 17 17 16 17 17 17 17 17 17 18 18 17 17 17 16 16 16 16 16 17 18 18 18
16 15 15 15 15 15 15 16 17 17 17 16 16 16 16 16 16 17 16 16 17 17 17 17 17 17 17 18 17 18 18 18 18 17 16 15 15 16 16 17 17 17 18
17 17 16 16 16 16 16 17 17 17 17 17 16 16 16 17 17 17 17 17 17 17 17 17 17 17 17 17 17 17 17 17 17 17 17 16 15 16 16 16 16 16 17
18 18 18 18 17 17 17 17 17 17 17 17 17 17 17 17 17 18 18 18 17 18 18 17 17 17 16 16 16 17 16 17 17 17 17 17 16 16 16 16 17 17 17
19 19 18 18 18 18 18 18 18 18 18 18 18 18 18 18 18 18 18 18 18 18 18 17 17 17 16 16 17 17 17 17 18 18 17 18 18 18 17 17 17 18 18
21 20 20 19 19 19 19 19 19 19 19 18 18 18 18 19 18 18 18 19 19 19 19 18 18 18 18 17 17 18 18 18 19 18 18 18 19 19 19 19 18 18 19
22 21 21 21 21 21 21 20 20 20 20 19 19 19 20 20 20 20 20 20 20 20 20 20 19 19 19 19 19 19 20 20 20 20 20 20 20 19 19 19 19 20 20
22 22 23 22 22 21 21 21 21 21 21 21 21 21 21 21 21 21 21 21 21 21 21 21 21 20 21 21 21 20 21 21 20 21 21 21 22 21 21 21 21 21 22
23 23 23 23 22 22 22 22 21 21 21 22 22 22 22 22 22 23 23 23 23 22 22 21 21 21 21 22 22 22 21 21 21 22 22 22 23 23 22 22 21 21 21
25 24 24 24 24 23 23 23 22 22 22 22 22 22 22 22 22 23 23 23 23 23 23 23 23 23 23 23 23 23 23 23 22 22 22 23 24 24 24 23 23 23 23
25 24 25 24 24 23 23 23 23 23 23 22 23 23 23 23 22 23 23 23 23 23 23 23 24 24 23 23 24 25 24 24 23 23 23 24 24 24 24 24 24 24 24
26 25 24 24 24 24 24 24 24 24 23 23 23 24 24 24 24 23 24 24 23 24 24 24 24 25 25 25 25 26 26 26 25 25 25 25 25 25 25 25 25 25 25
Wind_Direction
264 264 261 259 263 269 270 271 273 273 272 272 270 268 266 263 261 259 256 256 257 259 260 259 257 255 257 257 258 258 259 259 258 258 259 261 260 260 263 263 263 262 260
264 263 263 266 269 271 274 275 274 276 276 275 274 271 268 265 262 258 256 256 257 259 259 257 254 254 256 255 257 258 257 258 259 259 260 262 262 263 262 263 263 262 261
262 263 265 267 269 271 272 273 275 275 275 276 278 278 276 272 268 264 260 258 258 260 259 256 254 255 256 255 255 257 258 259 260 259 259 260 261 262 263 264 263 261 262
264 267 270 271 271 271 271 273 276 278 279 280 282 282 281 277 273 270 266 264 263 263 261 258 256 256 256 255 255 258 259 259 260 259 257 260 260 260 262 264 263 262 264
268 270 272 273 272 270 271 275 277 281 282 283 285 285 283 279 275 274 273 270 268 266 265 263 260 259 257 257 258 261 262 261 261 261 260 259 263 263 263 264 265 264 264
266 270 274 275 274 273 274 278 282 284 283 284 285 285 283 281 278 276 273 271 269 268 267 266 265 263 261 259 260 263 263 264 264 264 262 262 264 265 266 266 268 267 264
265 268 273 275 274 275 276 279 281 282 282 284 285 285 282 279 276 275 273 270 268 267 267 267 266 266 264 261 261 263 264 267 268 271 263 263 264 267 270 270 267 265 264
266 267 273 275 275 275 277 280 282 282 283 283 285 285 283 278 275 274 272 270 267 266 267 268 268 268 267 266 263 264 264 266 268 270 269 267 266 267 267 268 266 263 261
269 271 275 276 275 275 276 278 281 282 283 284 285 285 283 280 276 273 272 269 267 265 265 265 267 267 268 268 267 266 265 268 270 269 268 264 264 265 263 263 262 262 259
270 273 276 277 277 277 276 278 280 282 284 286 287 285 284 281 278 275 272 270 269 268 265 265 268 267 267 267 266 266 264 267 270 271 269 267 265 265 264 263 262 261 259
270 274 276 280 280 277 275 276 279 282 284 285 285 284 282 281 278 276 272 272 272 271 269 266 266 267 266 266 266 267 266 266 269 269 268 269 268 267 266 263 260 260 257
272 274 276 280 282 280 276 276 277 280 282 284 283 281 279 279 278 274 272 273 273 273 272 271 268 266 266 266 264 264 266 266 265 266 267 269 268 265 265 265 262 261 259
273 274 275 278 281 280 280 278 279 279 279 280 280 277 274 275 275 272 271 275 275 276 275 272 271 270 266 264 262 262 264 264 265 266 267 266 266 262 261 261 262 263 263
270 273 275 277 278 280 281 283 283 282 280 279 278 276 274 273 273 272 273 276 278 277 274 272 271 271 268 265 264 261 263 264 266 268 271 269 265 265 263 262 262 263 263
268 272 275 276 276 279 281 284 284 287 285 282 280 278 277 275 275 275 275 276 277 277 275 273 272 271 269 266 263 260 260 262 265 268 271 270 268 268 267 268 266 265 264
266 270 273 277 278 279 282 284 286 286 285 282 280 278 278 278 277 277 277 275 276 277 278 278 274 272 269 267 265 263 260 262 264 267 268 270 270 269 267 267 265 265 264
267 270 273 275 277 277 280 283 284 284 282 279 278 277 279 279 277 277 277 278 279 279 279 280 276 273 270 269 269 268 265 262 264 267 268 269 268 268 267 266 264 264 264
266 268 271 273 275 276 278 280 281 281 280 278 277 277 278 278 277 276 275 277 279 279 279 279 277 273 269 267 269 267 263 261 261 262 265 266 268 269 268 267 266 265 264
267 268 269 272 274 276 278 278 278 278 278 278 278 278 278 278 277 276 276 277 278 278 277 276 276 273 271 269 267 265 263 261 261 260 261 264 267 268 267 268 267 266 264
265 266 269 270 272 275 278 278 277 277 277 278 279 280 280 279 279 278 277 278 278 278 276 273 273 272 270 269 267 264 265 264 263 261 261 264 266 265 266 268 267 266 266
267 268 270 271 273 275 277 278 278 277 277 278 280 282 283 283 282 280 279 278 279 278 278 274 274 271 269 269 269 266 266 267 265 263 261 262 264 265 265 266 267 268 267
268 271 272 271 274 276 277 277 275 275 275 277 279 281 282 283 283 282 279 278 278 278 278 276 275 273 270 269 268 266 266 265 266 265 264 262 263 265 265 266 269 271 269
269 273 272 271 272 273 274 275 273 273 274 275 277 279 281 283 283 283 280 278 277 277 277 275 273 272 270 268 266 265 265 266 268 267 267 265 265 266 267 268 270 272 273
271 272 270 268 269 269 271 272 272 272 273 275 277 278 280 282 283 283 281 279 277 276 275 274 273 272 270 268 265 266 266 266 267 267 268 269 268 267 268 271 271 272 274
269 270 269 268 268 268 268 270 272 272 273 274 275 277 280 281 282 282 281 280 279 275 274 274 272 271 271 270 268 267 266 266 266 266 268 269 268 268 268 269 272 272 272
266 268 268 267 267 268 270 271 271 272 272 273 275 277 279 279 281 281 280 279 278 276 274 274 273 270 270 269 268 268 267 266 266 266 267 269 269 268 268 269 271 272 272
Height
5851 5851 5850 5850 5850 5851 5850 5850 5850 5850 5849 5849 5849 5849 5848 5848 5848 5847 5847 5847 5846 5846 5846 5846 5846 5846 5847 5847 5847 5847 5847 5847 5847 5848 5848 5848 5848 5849 5849 5849 5849 5849 5849
5850 5850 5849 5849 5849 5849 5849 5849 5848 5848 5848 5847 5847 5846 5846 5845 5845 5844 5844 5844 5843 5843 5843 5843 5843 5843 5843 5843 5844 5844 5844 5844 5844 5844 5844 5845 5845 5845 5845 5845 5845 5845 5845
5848 5848 5848 5847 5847 5847 5847 5847 5846 5846 5846 5845 5844 5844 5843 5842 5842 5841 5841 5840 5840 5840 5840 5840 5840 5840 5840 5840 5840 5840 5840 5840 5840 5840 5840 5841 5841 5841 5841 5841 5841 5842 5842
5847 5846 5846 5846 5846 5845 5845 5845 5844 5844 5843 5843 5842 5841 5841 5840 5839 5838 5838 5837 5837 5837 5837 5837 5837 5837 5837 5837 5836 5837 5837 5836 5836 5835 5836 5836 5837 5837 5837 5837 5837 5838 5838
5845 5844 5844 5844 5844 5843 5843 5843 5842 5842 5841 5840 5839 5838 5838 5837 5836 5836 5835 5834 5834 5834 5833 5833 5833 5833 5833 5833 5833 5833 5833 5833 5832 5831 5832 5832 5833 5833 5833 5833 5833 5834 5834
5843 5842 5842 5842 5841 5841 5841 5840 5840 5839 5838 5838 5837 5836 5835 5834 5833 5833 5832 5832 5831 5830 5830 5830 5830 5830 5829 5829 5829 5829 5829 5829 5828 5828 5828 5828 5828 5829 5829 5829 5830 5830 5830
5841 5840 5840 5840 5839 5839 5838 5838 5837 5837 5836 5835 5834 5833 5832 5831 5830 5830 5829 5829 5828 5828 5827 5827 5827 5826 5826 5826 5826 5826 5826 5825 5824 5824 5824 5824 5824 5825 5825 5825 5826 5826 5827
5838 5838 5838 5837 5837 5836 5836 5835 5835 5834 5833 5832 5831 5830 5829 5829 5827 5826 5826 5825 5825 5824 5824 5824 5823 5823 5823 5823 5822 5822 5823 5822 5821 5820 5820 5820 5821 5821 5821 5822 5822 5822 5823
5836 5835 5835 5834 5834 5833 5833 5832 5831 5831 5830 5829 5828 5827 5826 5825 5824 5823 5822 5822 5821 5821 5821 5820 5820 5820 5819 5819 5819 5819 5818 5818 5817 5816 5817 5817 5817 5817 5817 5817 5818 5818 5818
5832 5832 5832 5831 5831 5830 5829 5829 5828 5827 5827 5825 5824 5823 5822 5821 5821 5820 5819 5818 5818 5817 5817 5817 5816 5816 5816 5815 5815 5815 5815 5814 5814 5813 5813 5813 5813 5813 5813 5814 5814 5814 5814
5829 5829 5828 5828 5827 5826 5826 5825 5825 5824 5823 5822 5821 5819 5818 5818 5817 5816 5815 5815 5814 5813 5813 5812 5812 5812 5811 5811 5811 5811 5811 5811 5810 5810 5809 5809 5809 5809 5809 5809 5810 5810 5810
5826 5825 5824 5824 5823 5823 5822 5821 5821 5820 5819 5818 5817 5816 5815 5814 5813 5813 5812 5811 5810 5810 5809 5808 5808 5807 5807 5807 5807 5807 5807 5807 5806 5806 5806 5805 5805 5805 5805 5805 5805 5806 5806
5822 5822 5821 5820 5819 5819 5818 5817 5816 5815 5814 5813 5812 5811 5811 5810 5809 5809 5808 5807 5806 5806 5805 5804 5803 5803 5802 5802 5802 5802 5802 5802 5802 5802 5802 5802 5801 5801 5801 5801 5801 5802 5802
5818 5818 5817 5816 5815 5815 5814 5813 5812 5811 5810 5809 5808 5807 5806 5805 5805 5804 5804 5803 5802 5801 5800 5800 5799 5798 5798 5798 5797 5797 5798 5798 5798 5798 5798 5797 5797 5797 5797 5797 5797 5797 5797
5814 5814 5813 5812 5811 5810 5810 5809 5808 5806 5805 5804 5803 5802 5802 5801 5800 5800 5799 5799 5798 5797 5796 5795 5794 5794 5793 5793 5792 5792 5793 5793 5793 5793 5793 5793 5792 5792 5792 5792 5792 5793 5793
5809 5809 5808 5808 5807 5806 5805 5804 5803 5802 5800 5799 5798 5798 5797 5796 5796 5795 5795 5794 5793 5792 5791 5790 5789 5789 5788 5788 5788 5787 5787 5788 5788 5788 5788 5788 5788 5788 5788 5788 5788 5788 5788
5804 5804 5803 5803 5802 5801 5800 5799 5798 5796 5795 5794 5794 5793 5792 5792 5791 5790 5790 5789 5788 5787 5786 5785 5784 5783 5783 5783 5783 5782 5782 5783 5783 5783 5784 5784 5784 5783 5783 5783 5783 5783 5783
5799 5798 5798 5797 5796 5795 5795 5794 5792 5791 5790 5789 5789 5788 5787 5786 5786 5785 5784 5784 5783 5782 5781 5780 5779 5778 5778 5778 5778 5778 5778 5778 5778 5779 5779 5779 5779 5779 5779 5779 5779 5779 5779
5793 5792 5792 5792 5791 5790 5789 5788 5787 5786 5785 5784 5783 5782 5782 5781 5780 5780 5779 5778 5778 5777 5776 5775 5774 5773 5773 5773 5773 5773 5773 5773 5773 5774 5774 5774 5774 5774 5774 5774 5774 5774 5774
5787 5786 5786 5786 5785 5784 5783 5782 5781 5780 5779 5778 5777 5777 5776 5775 5774 5774 5773 5773 5772 5771 5770 5770 5769 5768 5768 5768 5768 5768 5768 5768 5768 5768 5769 5769 5769 5769 5769 5769 5769 5769 5768
5780 5780 5780 5779 5778 5777 5776 5775 5774 5773 5772 5772 5771 5771 5770 5769 5768 5768 5767 5767 5766 5765 5765 5764 5764 5763 5763 5762 5762 5762 5762 5762 5763 5763 5763 5764 5764 5763 5763 5763 5763 5763 5763
5774 5774 5773 5772 5772 5770 5769 5768 5767 5767 5766 5766 5765 5764 5764 5763 5762 5761 5761 5760 5760 5759 5759 5758 5758 5757 5757 5757 5756 5756 5756 5756 5757 5757 5757 5757 5758 5757 5757 5757 5757 5757 5757
5767 5766 5766 5765 5765 5764 5763 5762 5761 5760 5760 5759 5759 5758 5757 5756 5755 5755 5754 5753 5753 5752 5752 5752 5751 5751 5750 5750 5750 5750 5750 5750 5751 5751 5751 5751 5751 5751 5751 5751 5751 5750 5750
5759 5759 5758 5758 5757 5757 5756 5755 5754 5754 5753 5753 5752 5751 5750 5750 5749 5748 5747 5746 5746 5746 5745 5744 5744 5744 5744 5743 5743 5743 5743 5744 5744 5744 5744 5744 5744 5744 5744 5744 5744 5743 5743
5751 5751 5750 5750 5749 5749 5749 5748 5747 5747 5746 5746 5745 5744 5744 5743 5742 5741 5740 5740 5739 5738 5738 5737 5737 5737 5736 5736 5736 5736 5736 5736 5737 5737 5737 5737 5737 5737 5737 5737 5737 5736 5737
5743 5743 5742 5742 5742 5742 5742 5741 5740 5740 5739 5739 5738 5737 5737 5736 5735 5734 5733 5732 5732 5731 5730 5730 5730 5729 5729 5729 5729 5729 5729 5729 5729 5730 5730 5729 5729 5729 5730 5730 5729 5729 5729